SCP
0 0 0 0 0 0 0 0 0 0 0 0 0 0 0 0 0 0 0 0 0 0 0 0 0 0 0 0 0 0 0 0 0 0 0 0 0 0 0 0 0 -0 -0
0 0 0 0 0 0 0 0 0 0 0 0 0 0 0 0 0 0 0 0 0 0 0 0 0 0 0 0 0 0 0 0 0 0 0 0 0 0 0 0 0 -0 -0
0 0 0 0 0 0 0 0 0 0 0 0 0 0 0 0 0 0 0 0 0 0 0 0 0 0 0 0 0 0 0 0 0 0 0 0 0 0 0 0 0 0 0
0 0 0 0 0 0 0 0 0 0 0 0 0 0 0 0 0 0 0 0 0 0 0 0 0 0 0 0 0 0 0 0 0 0 0 0 0 0 0 0 0 0 0
-0 0 0 0 0 0 0 0 0 0 0 0 0 0 -0 -0 0 0 0 0 0 0 0 0 0 0 0 0 0 0 0 0 0 0 0 0 0 0 0 0 0 0 -0
-0 0 0 0 0 0 0 0 0 0 0 0 0 0 0 0 0 0 0 0 0 0 0 0 0 -0 0 0 0 0 0 0 0 0 0 0 0 0 0 0 0 -0 0
-0 0 0 0 0 0 0 0 0 0 0 0 0 0 0 0 0 0 0 0 0 0 0 0 0 0 0 0 0 0 0 0 0 0 0 0 0 0 -0 -0 0 0 0
-0 0 0 0 0 0 0 0 0 0 0 0 0 0 0 0 0 0 0 0 0 0 0 -0 0 -0 -0 0 0 0 0 0 0 0 0 0 0 0 0 0 0 0 0
-0 0 0 0 0 0 0 0 0 0 0 0 0 0 0 -0 0 0 0 0 -0 -0 -0 -0 -0 -0 0 0 0 0 0 0 0 0 -0 -0 -0 0 0 0 0 0 0
-0 -0 0 0 0 0 0 0 0 0 0 0 0 0 0 0 0 0 0 0 -0 -0 -0 0 0 0 0 0 -0 -0 0 -0 0 0 -0 -0 0 0 0 0 0 0 0
-0 -0 0 0 0 0 0 0 0 0 0 0 0 0 0 0 0 0 0 0 -0 0 -0 0 -0 -0 -0 -0 0 0 0 0 -0 -0 0 0 0 0 0 0 0 0 0
-0 -0 -0 -0 0 0 0 0 0 0 0 0 0 0 0 0 -0 -0 0 0 -0 -0 -0 -0 -0 -0 0 0 0 0 -0 -0 0 0 0 0 0 0 0 0 0 0 0
-0 -0 -0 -0 -0 -0 0 0 0 0 0 0 0 0 -0 -0 -0 -0 -0 -0 -0 -0 -0 0 0 0 0 -0 -0 -0 -0 0 0 0 0 0 0 0 0 0 0 0 0
0 -0 -0 -0 0 0 0 0 0 0 0 0 0 0 -0 -0 -0 -0 -0 -0 0 0 0 0 0 0 0 0 0 0 0 0 0 0 0 0 0 0 0 0 0 0 0
0 0 0 0 -0 0 0 0 0 0 -0 -0 -0 -0 -0 0 0 0 0 0 0 0 -0 0 0 0 0 0 0 0 0 0 0 0 0 0 0 0 0 0 0 0 0
0 0 0 0 0 0 0 0 0 0 -0 -0 -0 -0 0 -0 -0 -0 -0 -0 -0 -0 0 0 0 0 0 0 0 0 0 0 0 0 0 0 0 0 0 0 0 0 0
0 0 0 0 0 0 0 0 0 0 0 0 -0 -0 -0 -0 -0 -0 -0 -0 -0 0 0 0 0 0 0 0 0 0 0 0 0 0 0 0 0 0 0 0 0 0 0
0 0 0 0 0 0 0 0 0 0 0 -0 -0 -0 -0 -0 -0 -0 -0 -0 0 0 0 0 0 0 0 0 0 0 0 0 0 0 0 0 0 0 0 0 0 0 0
0 0 0 0 0 0 0 0 0 0 0 0 0 0 -0 -0 0 0 -0 0 0 0 0 0 0 0 0 0 0 0 0 0 0 0 0 0 0 0 0 0 0 0 0
0 0 0 0 0 0 0 0 0 0 0 0 0 0 0 0 0 0 0 0 0 0 0 0 0 0 0 0 0 0 0 0 0 0 0 0 0 0 0 0 0 0 0
0 0 0 0 0 0 0 0 0 0 0 0 0 0 0 0 0 0 0 0 0 0 0 0 0 0 0 0 0 0 0 0 0 0 0 0 0 0 0 0 0 0 0
0 0 0 0 0 0 0 0 0 0 0 0 0 0 0 0 0 0 0 0 0 0 0 0 0 0 0 0 0 0 0 0 0 0 0 0 0 0 0 0 0 0 0
0 0 0 0 0 0 0 0 0 0 0 0 0 0 0 0 0 0 0 0 0 0 0 0 0 0 0 0 0 0 0 0 0 0 0 0 0 0 0 0 0 0 0
0 0 0 0 0 0 0 0 0 0 0 0 0 0 0 0 0 0 0 0 0 0 0 0 0 0 0 0 0 0 0 0 0 0 0 0 0 0 0 0 0 0 0
0 0 0 0 0 0 0 0 0 0 0 0 0 0 0 0 0 0 0 0 0 0 0 0 0 0 0 0 0 0 0 0 0 0 0 0 0 0 0 0 0 0 0
0 0 0 0 0 0 0 0 0 0 0 0 0 0 0 0 0 0 0 0 0 0 0 0 0 0 0 0 0 0 0 0 0 0 0 0 0 0 0 0 0 0 0
Wind_Speed_500mb
6 9 3 6 11 13 17 13 14 11 15 19 26 29 34 36 36 34 33 32 34 32 30 35 43 56 53 45 57 48 48 52 56 51 50 53 56 56 54 41 31 16 14
5 9 7 3 5 10 17 19 12 13 21 24 28 29 36 36 35 32 34 30 31 34 35 42 54 52 45 51 52 44 38 40 58 48 48 56 57 53 45 32 25 21 19
6 8 10 2 4 8 14 21 20 21 22 27 27 32 32 33 33 41 32 40 36 30 34 37 47 53 57 53 54 50 43 48 46 43 41 42 45 47 41 32 25 23 17
13 12 10 4 11 14 15 24 22 22 25 24 27 31 32 30 35 35 37 24 19 24 35 44 43 61 58 48 52 37 53 46 39 35 32 39 39 38 28 29 27 20 13
21 14 11 21 21 19 20 21 25 24 21 24 27 31 30 30 33 33 31 26 27 30 37 43 46 54 45 50 57 56 49 38 30 25 28 36 36 32 25 22 15 14 17
28 17 12 26 23 19 20 21 17 23 24 19 20 27 24 24 28 32 28 36 38 38 45 48 54 55 55 56 49 40 32 32 32 28 28 30 23 18 17 16 18 13 10
32 22 13 31 25 21 21 21 20 21 19 23 28 31 32 31 28 28 27 31 39 40 51 51 59 66 59 46 32 25 30 29 15 19 23 24 22 20 16 10 4 3 10
35 26 19 36 30 26 24 19 18 15 11 24 28 32 32 33 32 35 34 37 41 43 47 55 61 57 48 37 29 31 30 29 20 12 12 14 11 8 1 5 12 17 20
38 32 23 36 35 32 29 23 19 15 23 30 28 31 34 35 31 29 33 41 45 45 55 60 54 42 34 31 28 24 26 22 15 12 10 9 2 2 8 15 19 24 22
40 33 28 30 36 37 35 28 21 16 25 30 30 29 33 36 35 35 38 41 41 42 46 49 43 33 36 36 32 30 29 26 21 15 14 15 14 17 20 20 17 14 11
37 34 36 25 36 36 36 33 28 23 26 31 32 33 31 30 32 30 28 26 32 37 42 45 41 36 33 29 32 34 27 31 25 19 21 22 21 17 13 13 13 13 15
40 39 45 34 33 34 33 34 30 35 32 30 33 35 33 30 27 29 26 21 19 23 33 35 36 35 32 34 35 34 33 31 27 27 26 26 21 15 15 14 15 11 11
48 45 48 44 38 35 35 35 36 42 40 38 33 32 38 38 34 30 25 24 22 24 25 30 33 36 34 33 32 31 30 29 26 24 23 17 13 11 13 11 7 11 11
54 51 52 54 48 44 40 37 39 43 51 47 40 38 34 37 41 42 37 28 29 31 32 35 34 37 38 35 36 33 27 24 24 25 24 19 15 14 6 7 14 17 16
59 56 59 59 54 50 44 38 39 40 45 52 49 40 40 38 41 45 45 40 36 37 39 44 45 46 46 42 39 35 30 31 34 33 26 21 14 14 16 19 21 20 14
65 63 65 66 63 57 51 47 40 29 34 42 44 42 39 31 31 38 45 46 42 44 47 51 51 50 47 43 38 35 37 39 39 31 26 21 21 26 24 18 18 15 8
69 69 68 65 70 65 60 52 46 45 41 42 48 48 39 34 37 35 41 50 50 50 53 54 52 50 49 46 43 44 43 42 38 34 33 31 29 25 20 26 21 14 9
71 69 72 70 69 69 64 55 49 47 48 52 52 56 47 44 41 38 36 52 64 63 61 60 57 53 53 50 50 49 48 49 47 42 40 32 28 24 30 23 18 14 10
73 77 77 74 73 71 66 63 56 49 49 48 54 58 59 53 50 48 50 61 72 73 70 70 63 58 55 52 52 52 53 57 54 50 44 33 29 34 31 25 21 16 10
70 73 79 80 77 76 73 69 64 58 53 54 58 58 65 64 61 62 64 68 69 72 71 71 72 70 64 62 61 62 61 62 62 56 44 39 44 39 34 29 22 14 7
71 73 78 83 79 76 77 74 68 63 58 57 58 59 62 72 72 71 70 78 77 73 71 71 72 74 73 71 67 65 67 71 68 60 50 55 51 45 34 29 21 12 4
70 72 76 78 82 80 79 76 73 68 63 59 55 54 57 66 75 79 79 82 83 83 80 76 73 76 73 68 74 74 78 80 74 65 61 56 43 40 40 29 20 11 3
75 71 72 80 81 82 84 83 80 76 71 66 63 61 58 64 71 72 78 86 86 83 86 85 81 79 75 58 76 85 88 89 78 69 65 52 51 50 41 31 23 12 3
81 75 69 72 80 85 88 88 86 81 76 74 72 71 70 71 69 67 74 80 82 86 85 93 91 81 73 75 70 93 86 81 77 72 58 46 50 44 39 32 21 10 7
74 77 77 72 73 74 79 83 81 81 78 75 73 74 74 76 76 78 74 75 81 82 89 94 92 85 80 66 75 94 82 66 60 53 44 46 47 40 36 28 17 12 9
46 60 65 64 71 69 67 70 73 80 83 77 71 69 68 66 73 89 94 93 92 88 88 96 100 97 86 76 85 87 84 73 52 46 49 50 44 41 34 25 18 13 9
Wind_Direction_500mb
248 174 165 11 19 47 39 61 77 120 111 133 139 158 169 170 175 173 176 172 178 185 188 191 181 182 188 184 180 179 173 163 165 175 180 170 169 177 187 195 204 220 233
193 185 193 22 30 59 58 43 109 113 119 128 133 148 156 160 162 164 163 170 180 177 170 173 175 178 180 173 166 156 151 182 171 163 175 172 182 187 190 203 223 238 242
187 173 189 26 93 91 62 52 113 121 114 123 134 139 146 150 153 151 146 140 137 148 167 169 167 169 162 161 165 155 132 136 149 152 152 165 177 188 199 209 223 218 211
190 188 181 116 131 117 86 71 100 126 116 131 136 142 148 152 161 171 164 163 156 155 166 173 167 171 167 166 159 151 147 148 150 149 163 168 171 177 192 197 198 202 215
191 185 164 143 123 117 97 98 94 118 131 127 145 147 153 168 176 179 180 179 158 159 158 168 172 171 174 166 154 150 148 158 164 174 189 179 180 181 174 176 192 222 239
194 190 161 159 139 131 121 108 112 106 119 133 133 153 161 175 185 190 193 193 164 154 150 142 139 146 150 148 149 152 157 159 162 179 188 185 180 171 171 182 199 219 279
194 191 169 167 157 146 142 135 113 104 104 120 138 144 133 125 124 136 134 145 154 156 146 149 148 143 145 144 140 150 166 150 120 131 147 148 140 140 150 156 157 264 321
193 191 175 175 168 165 160 150 135 108 106 128 129 146 141 129 124 125 119 133 150 155 153 156 151 150 151 147 142 151 146 144 154 167 134 119 122 122 153 271 273 284 294
193 191 192 186 180 182 178 168 152 129 132 138 135 139 141 134 137 131 135 132 129 134 156 156 155 152 153 153 156 154 151 160 177 152 164 198 220 232 271 283 285 286 276
197 192 194 188 182 183 182 183 172 150 145 149 143 139 135 131 133 137 138 140 143 143 149 161 172 168 164 167 168 173 173 170 184 186 171 204 247 263 259 260 264 261 252
200 192 195 187 185 186 182 189 195 183 159 160 159 157 153 147 145 149 151 145 145 146 154 161 166 168 167 166 173 185 192 199 203 200 215 219 215 209 228 250 255 253 246
196 191 199 193 183 187 189 188 194 195 177 167 173 170 171 167 167 169 172 174 167 160 164 167 170 171 176 179 182 190 193 196 196 199 207 213 217 224 229 223 228 244 323
196 193 199 199 196 195 196 195 194 197 194 187 183 186 187 189 190 191 186 189 188 187 185 181 182 181 181 178 179 182 185 189 202 218 225 215 203 211 208 228 273 288 277
199 200 204 203 203 203 205 206 205 200 199 202 202 203 199 203 205 206 203 196 188 179 184 187 187 184 182 185 188 194 201 213 230 231 215 216 224 227 241 239 228 237 237
200 203 208 210 209 207 212 213 215 217 213 207 211 213 212 214 212 209 209 203 192 184 184 186 186 188 190 193 200 207 218 230 232 224 218 216 216 224 224 210 217 218 206
198 205 210 211 212 212 213 215 216 220 222 222 224 224 227 233 217 211 209 207 204 195 194 194 195 197 199 204 211 220 229 227 224 218 206 213 217 207 210 206 185 177 149
204 204 209 215 215 215 216 219 219 214 215 217 219 220 222 210 199 202 206 206 209 207 207 205 207 209 211 214 222 230 232 229 224 210 209 209 210 211 211 179 172 158 150
212 211 211 214 218 220 221 224 225 223 219 212 210 209 208 203 200 204 210 210 211 214 215 215 215 217 218 221 221 221 219 221 216 211 211 216 212 209 187 178 165 166 154
215 215 216 219 221 223 224 225 228 228 229 225 211 208 206 207 206 209 220 219 215 217 219 220 220 222 225 223 221 220 229 233 222 214 211 217 210 197 184 174 178 169 150
218 221 221 221 225 224 226 228 229 232 232 229 222 218 212 210 214 216 221 221 223 225 225 225 226 229 230 230 230 234 237 228 216 214 215 213 197 191 183 183 178 169 145
215 219 224 225 226 229 229 230 234 236 237 234 233 228 224 221 220 221 222 224 226 227 229 231 232 231 234 234 236 238 233 226 218 214 215 199 191 182 186 186 180 161 151
221 220 221 225 230 229 232 233 235 237 240 241 241 237 232 233 233 232 233 233 234 235 236 236 236 235 234 243 244 236 229 220 213 209 198 185 192 190 192 185 181 176 179
228 226 225 225 229 235 236 237 238 239 240 243 246 245 240 237 238 239 241 242 241 242 241 238 234 233 232 241 254 238 231 222 214 202 187 183 194 190 187 187 189 188 221
230 229 229 228 230 235 237 239 241 243 245 246 247 248 249 246 244 247 248 247 247 245 243 239 236 236 233 243 246 225 217 214 202 187 184 184 189 190 190 191 192 194 237
233 231 232 233 233 238 242 242 242 244 244 244 246 248 255 252 248 249 249 251 253 246 242 236 232 232 233 246 233 214 211 195 179 174 171 196 196 195 195 194 197 216 252
221 230 235 236 239 241 245 246 245 243 243 242 245 250 249 253 256 254 249 246 245 246 239 234 232 232 228 237 216 210 194 178 184 183 188 203 201 198 194 194 206 217 250
Wind_Speed_850mb
6 9 3 6 11 13 17 13 14 11 15 19 26 29 34 36 36 34 33 32 34 32 30 35 43 56 53 45 57 48 48 52 56 51 50 53 56 56 54 41 31 16 14
5 9 7 3 5 10 17 19 12 13 21 24 28 29 36 36 35 32 34 30 31 34 35 42 54 52 45 51 52 44 38 40 58 48 48 56 57 53 45 32 25 21 19
6 8 10 2 4 8 14 21 20 21 22 27 27 32 32 33 33 41 32 40 36 30 34 37 47 53 57 53 54 50 43 48 46 43 41 42 45 47 41 32 25 23 17
13 12 10 4 11 14 15 24 22 22 25 24 27 31 32 30 35 35 37 24 19 24 35 44 43 61 58 48 52 37 53 46 39 35 32 39 39 38 28 29 27 20 13
21 14 11 21 21 19 20 21 25 24 21 24 27 31 30 30 33 33 31 26 27 30 37 43 46 54 45 50 57 56 49 38 30 25 28 36 36 32 25 22 15 14 17
28 17 12 26 23 19 20 21 17 23 24 19 20 27 24 24 28 32 28 36 38 38 45 48 54 55 55 56 49 40 32 32 32 28 28 30 23 18 17 16 18 13 10
32 22 13 31 25 21 21 21 20 21 19 23 28 31 32 31 28 28 27 31 39 40 51 51 59 66 59 46 32 25 30 29 15 19 23 24 22 20 16 10 4 3 10
35 26 19 36 30 26 24 19 18 15 11 24 28 32 32 33 32 35 34 37 41 43 47 55 61 57 48 37 29 31 30 29 20 12 12 14 11 8 1 5 12 17 20
38 32 23 36 35 32 29 23 19 15 23 30 28 31 34 35 31 29 33 41 45 45 55 60 54 42 34 31 28 24 26 22 15 12 10 9 2 2 8 15 19 24 22
40 33 28 30 36 37 35 28 21 16 25 30 30 29 33 36 35 35 38 41 41 42 46 49 43 33 36 36 32 30 29 26 21 15 14 15 14 17 20 20 17 14 11
37 34 36 25 36 36 36 33 28 23 26 31 32 33 31 30 32 30 28 26 32 37 42 45 41 36 33 29 32 34 27 31 25 19 21 22 21 17 13 13 13 13 15
40 39 45 34 33 34 33 34 30 35 32 30 33 35 33 30 27 29 26 21 19 23 33 35 36 35 32 34 35 34 33 31 27 27 26 26 21 15 15 14 15 11 11
48 45 48 44 38 35 35 35 36 42 40 38 33 32 38 38 34 30 25 24 22 24 25 30 33 36 34 33 32 31 30 29 26 24 23 17 13 11 13 11 7 11 11
54 51 52 54 48 44 40 37 39 43 51 47 40 38 34 37 41 42 37 28 29 31 32 35 34 37 38 35 36 33 27 24 24 25 24 19 15 14 6 7 14 17 16
59 56 59 59 54 50 44 38 39 40 45 52 49 40 40 38 41 45 45 40 36 37 39 44 45 46 46 42 39 35 30 31 34 33 26 21 14 14 16 19 21 20 14
65 63 65 66 63 57 51 47 40 29 34 42 44 42 39 31 31 38 45 46 42 44 47 51 51 50 47 43 38 35 37 39 39 31 26 21 21 26 24 18 18 15 8
69 69 68 65 70 65 60 52 46 45 41 42 48 48 39 34 37 35 41 50 50 50 53 54 52 50 49 46 43 44 43 42 38 34 33 31 29 25 20 26 21 14 9
71 69 72 70 69 69 64 55 49 47 48 52 52 56 47 44 41 38 36 52 64 63 61 60 57 53 53 50 50 49 48 49 47 42 40 32 28 24 30 23 18 14 10
73 77 77 74 73 71 66 63 56 49 49 48 54 58 59 53 50 48 50 61 72 73 70 70 63 58 55 52 52 52 53 57 54 50 44 33 29 34 31 25 21 16 10
70 73 79 80 77 76 73 69 64 58 53 54 58 58 65 64 61 62 64 68 69 72 71 71 72 70 64 62 61 62 61 62 62 56 44 39 44 39 34 29 22 14 7
71 73 78 83 79 76 77 74 68 63 58 57 58 59 62 72 72 71 70 78 77 73 71 71 72 74 73 71 67 65 67 71 68 60 50 55 51 45 34 29 21 12 4
70 72 76 78 82 80 79 76 73 68 63 59 55 54 57 66 75 79 79 82 83 83 80 76 73 76 73 68 74 74 78 80 74 65 61 56 43 40 40 29 20 11 3
75 71 72 80 81 82 84 83 80 76 71 66 63 61 58 64 71 72 78 86 86 83 86 85 81 79 75 58 76 85 88 89 78 69 65 52 51 50 41 31 23 12 3
81 75 69 72 80 85 88 88 86 81 76 74 72 71 70 71 69 67 74 80 82 86 85 93 91 81 73 75 70 93 86 81 77 72 58 46 50 44 39 32 21 10 7
74 77 77 72 73 74 79 83 81 81 78 75 73 74 74 76 76 78 74 75 81 82 89 94 92 85 80 66 75 94 82 66 60 53 44 46 47 40 36 28 17 12 9
46 60 65 64 71 69 67 70 73 80 83 77 71 69 68 66 73 89 94 93 92 88 88 96 100 97 86 76 85 87 84 73 52 46 49 50 44 41 34 25 18 13 9
Wind_Direction_850mb
248 174 165 11 19 47 39 61 77 120 111 133 139 158 169 170 175 173 176 172 178 185 188 191 181 182 188 184 180 179 173 163 165 175 180 170 169 177 187 195 204 220 233
193 185 193 22 30 59 58 43 109 113 119 128 133 148 156 160 162 164 163 170 180 177 170 173 175 178 180 173 166 156 151 182 171 163 175 172 182 187 190 203 223 238 242
187 173 189 26 93 91 62 52 113 121 114 123 134 139 146 150 153 151 146 140 137 148 167 169 167 169 162 161 165 155 132 136 149 152 152 165 177 188 199 209 223 218 211
190 188 181 116 131 117 86 71 100 126 116 131 136 142 148 152 161 171 164 163 156 155 166 173 167 171 167 166 159 151 147 148 150 149 163 168 171 177 192 197 198 202 215
191 185 164 143 123 117 97 98 94 118 131 127 145 147 153 168 176 179 180 179 158 159 158 168 172 171 174 166 154 150 148 158 164 174 189 179 180 181 174 176 192 222 239
194 190 161 159 139 131 121 108 112 106 119 133 133 153 161 175 185 190 193 193 164 154 150 142 139 146 150 148 149 152 157 159 162 179 188 185 180 171 171 182 199 219 279
194 191 169 167 157 146 142 135 113 104 104 120 138 144 133 125 124 136 134 145 154 156 146 149 148 143 145 144 140 150 166 150 120 131 147 148 140 140 150 156 157 264 321
193 191 175 175 168 165 160 150 135 108 106 128 129 146 141 129 124 125 119 133 150 155 153 156 151 150 151 147 142 151 146 144 154 167 134 119 122 122 153 271 273 284 294
193 191 192 186 180 182 178 168 152 129 132 138 135 139 141 134 137 131 135 132 129 134 156 156 155 152 153 153 156 154 151 160 177 152 164 198 220 232 271 283 285 286 276
197 192 194 188 182 183 182 183 172 150 145 149 143 139 135 131 133 137 138 140 143 143 149 161 172 168 164 167 168 173 173 170 184 186 171 204 247 263 259 260 264 261 252
200 192 195 187 185 186 182 189 195 183 159 160 159 157 153 147 145 149 151 145 145 146 154 161 166 168 167 166 173 185 192 199 203 200 215 219 215 209 228 250 255 253 246
196 191 199 193 183 187 189 188 194 195 177 167 173 170 171 167 167 169 172 174 167 160 164 167 170 171 176 179 182 190 193 196 196 199 207 213 217 224 229 223 228 244 323
196 193 199 199 196 195 196 195 194 197 194 187 183 186 187 189 190 191 186 189 188 187 185 181 182 181 181 178 179 182 185 189 202 218 225 215 203 211 208 228 273 288 277
199 200 204 203 203 203 205 206 205 200 199 202 202 203 199 203 205 206 203 196 188 179 184 187 187 184 182 185 188 194 201 213 230 231 215 216 224 227 241 239 228 237 237
200 203 208 210 209 207 212 213 215 217 213 207 211 213 212 214 212 209 209 203 192 184 184 186 186 188 190 193 200 207 218 230 232 224 218 216 216 224 224 210 217 218 206
198 205 210 211 212 212 213 215 216 220 222 222 224 224 227 233 217 211 209 207 204 195 194 194 195 197 199 204 211 220 229 227 224 218 206 213 217 207 210 206 185 177 149
204 204 209 215 215 215 216 219 219 214 215 217 219 220 222 210 199 202 206 206 209 207 207 205 207 209 211 214 222 230 232 229 224 210 209 209 210 211 211 179 172 158 150
212 211 211 214 218 220 221 224 225 223 219 212 210 209 208 203 200 204 210 210 211 214 215 215 215 217 218 221 221 221 219 221 216 211 211 216 212 209 187 178 165 166 154
215 215 216 219 221 223 224 225 228 228 229 225 211 208 206 207 206 209 220 219 215 217 219 220 220 222 225 223 221 220 229 233 222 214 211 217 210 197 184 174 178 169 150
218 221 221 221 225 224 226 228 229 232 232 229 222 218 212 210 214 216 221 221 223 225 225 225 226 229 230 230 230 234 237 228 216 214 215 213 197 191 183 183 178 169 145
215 219 224 225 226 229 229 230 234 236 237 234 233 228 224 221 220 221 222 224 226 227 229 231 232 231 234 234 236 238 233 226 218 214 215 199 191 182 186 186 180 161 151
221 220 221 225 230 229 232 233 235 237 240 241 241 237 232 233 233 232 233 233 234 235 236 236 236 235 234 243 244 236 229 220 213 209 198 185 192 190 192 185 181 176 179
228 226 225 225 229 235 236 237 238 239 240 243 246 245 240 237 238 239 241 242 241 242 241 238 234 233 232 241 254 238 231 222 214 202 187 183 194 190 187 187 189 188 221
230 229 229 228 230 235 237 239 241 243 245 246 247 248 249 246 244 247 248 247 247 245 243 239 236 236 233 243 246 225 217 214 202 187 184 184 189 190 190 191 192 194 237
233 231 232 233 233 238 242 242 242 244 244 244 246 248 255 252 248 249 249 251 253 246 242 236 232 232 233 246 233 214 211 195 179 174 171 196 196 195 195 194 197 216 252
221 230 235 236 239 241 245 246 245 243 243 242 245 250 249 253 256 254 249 246 245 246 239 234 232 232 228 237 216 210 194 178 184 183 188 203 201 198 194 194 206 217 250